Regional Weather Roundup
Issued by NWS Burlington, VT

Home | Current Version | Previous Version | Text Only | Print | Product List | Glossary On
Versions: 1 2 3 4 5 6 7 8 9 10 11 12 13 14 15 16 17 18 19 20 21 22 23 24 25 26 27 28 29 30 31 32 33 34 35 36 37 38 39 40 41 42 43 44 45 46 47 48 49 50
000
ASUS41 KBTV 211130
RWRBTV
VERMONT REGIONAL WEATHER ROUNDUP
NATIONAL WEATHER SERVICE BURLINGTON VT
700 AM EDT SAT APR 21 2018

NOTE: "FAIR" INDICATES FEW OR NO CLOUDS BELOW 12,000 FEET WITH NO
SIGNIFICANT WEATHER AND/OR OBSTRUCTIONS TO VISIBILITY.

* THESE REPORTS ARE NOT UNDER NWS QUALITY CONTROL AND/OR DO NOT
  REPORT WEATHER SUCH AS PRECIPITATION AND FOG.

VTZ001>019-211200-
_____VERMONT_____


CITY           SKY/WX    TMP DP  RH WIND       PRES   REMARKS
BURLINGTON     FAIR      33  28  81 CALM      30.32R
MONTPELIER     FAIR      34  25  69 W9        30.31R WCI  27
MORRISVILLE    FAIR      30  26  85 S3        30.29R
ST. JOHNSBURY*   N/A     30  28  92 MISG      30.26R
LYNDONVILLE*   FAIR      32  24  73 SW3       30.27R
MIDDLEBURY*    FAIR      31  28  90 CALM      30.32S
RUTLAND*       FAIR      28  27  96 SE5       30.32R WCI  23
SPRINGFIELD    FAIR      30  27  88 CALM      30.31R
HIGHGATE*      FAIR      36  26  66 CALM      30.32R
NEWPORT*       FAIR      34  23  63 W6        30.28R WCI  29
BENNINGTON     FAIR      28  24  85 CALM      30.34R
ISLAND POND*     N/A     32 N/A N/A W3          N/A
GALLUP MILLS*    N/A     28 N/A N/A MISG        N/A
UNION VILLAGE*   N/A     30 N/A N/A MISG        N/A
MT. MANSFIELD*   N/A     23 N/A N/A CALM        N/A

_____LAKE CHAMPLAIN_____


CITY           SKY/WX    TMP DP  RH WIND       PRES   REMARKS
BURTON ISLAND*   N/A     37  30  75 NW8         N/A  WCI  31
COLCHESTER RF*   N/A     37  27  65 W13         N/A  WCI  29

$$

NYZ007-026>031-035-052-083-087-211200-
_____NORTHERN NEW YORK_____


CITY           SKY/WX    TMP DP  RH WIND       PRES   REMARKS
PLATTSBURGH    FAIR      39  22  50 W7        30.32R
SARANAC LAKE   FAIR      19  18  95 CALM      30.28S
MASSENA        FAIR      29  25  85 W6        30.37R WCI  23
OGDENSBURG*    FAIR      36  25  66 NW5       30.38R WCI  32
POTSDAM*       FAIR      32  27  80 S6        30.37R WCI  26
STARK FALLS*     N/A     28 N/A N/A W5          N/A  WCI  23
WATERTOWN      FAIR      28  28 100 S3        30.40R
FT DRUM        FAIR      33  24  68 W6        30.37R WCI  28
ALBANY         FAIR      36  25  64 W8        30.37R WCI  30
GLENS FALLS    FAIR      28  25  88 CALM      30.35R

$$
NHZ002-005-011-211200-
_____NEW HAMPSHIRE_____


CITY           SKY/WX    TMP DP  RH WIND       PRES   REMARKS
LEBANON        FAIR      29  24  82 CALM      30.29R
KEENE          FAIR      28  27  96 CALM      30.32R
MT WASHINGTON  BLWGSNOW  14  14 100 NW53G75     N/A  VSB 1/16WCI -12
PLYMOUTH       FAIR      37  27  67 CALM      30.27S
WHITEFIELD     CLOUDY    31  29  92 CALM      30.25R

$$

_____REGIONAL QUEBEC LOCATIONS_____


CITY           SKY/WX    TMP DP  RH WIND       PRES   REMARKS
MONTREAL       CLEAR     36  23  60 NW7       30.32R WCI  30
QUEBEC CITY    MOSUNNY   34  23  64 VRB2      30.25R
SHERBROOKE       N/A     36  23  60 N7        30.24  WCI  30

_____REGIONAL ONTARIO LOCATIONS_____


CITY           SKY/WX    TMP DP  RH WIND       PRES   REMARKS
OTTAWA         CLEAR     30  23  74 W6        30.37R WCI  24

______KEY______
VSB  - VISIBILITY IN MILES
WCI  - WIND CHILL INDEX
HX   - HEAT INDEX
$$
NNNN




USA.gov is the U.S. government's official web portal to all federal, state and local government web resources and services.